Location: San Cristina
(40.0500°N, 8.7167°E)
Time: 23:17:49
(UTC+00:00)

Daily predictions for brighter satellites

Satellite Brightness Start Highest point End
(mag) Time Altitude Azimuth Time Altitude Azimuth Time Altitude Azimuth
Cosmos 2263 Rocket 2.6 17:22:08 10° N 17:27:35 44° ENE 17:33:00 10° SE
COSMO-SKYMED 1 2.5 17:23:26 10° NNE 17:27:47 70° ESE 17:32:06 10° S
Cosmos 1437 Rocket 4.2 17:25:46 10° SE 17:28:09 16° E 17:30:31 10° NE
Cosmos 1741 Rocket 4.1 17:25:26 10° SSW 17:30:43 87° ESE 17:36:01 10° NNE
Cosmos 2219 4.3 17:27:34 10° NNW 17:33:08 51° WSW 17:38:38 10° S
OAO 2 Rocket 3.9 17:28:32 10° WSW 17:33:13 45° S 17:37:54 10° ESE
Spot 1 4.2 17:29:16 10° NNE 17:33:14 44° E 17:37:06 10° S
ASTEX 1 3.5 17:28:51 10° NNE 17:33:48 61° E 17:38:43 10° S
USA 267 3.6 17:28:39 10° ESE 17:34:56 51° NE 17:41:13 10° NW
SL-4 R/B 3.2 17:34:19 10° NW 17:38:21 33° NNE 17:42:26 11° E
Cosmos 1626 3.5 17:35:07 10° NNW 17:38:35 43° W 17:42:01 10° SSW
Cosmos 1805 3.3 17:35:38 10° S 17:39:30 87° W 17:43:24 10° N
Cosmos 1242 Rocket 3.4 17:37:21 10° SSW 17:40:49 53° WNW 17:44:18 10° N
CZ-4 R/B 2.5 17:42:39 10° SE 17:46:04 25° ENE 17:49:28 10° NNE
ISS -3.7 17:45:07 10° NW 17:48:28 69° NE 17:51:29 12° ESE
Cosmos 2082 4.1 17:43:32 10° NNW 17:49:15 71° WSW 17:54:56 10° SSE
BREEZE M DEB (TANK) 3.5 17:39:52 10° SW 17:49:55 53° SSE 17:53:03 13° ENE
Cosmos 1908 Rocket 3.9 17:47:06 10° SSE 17:51:09 40° E 17:55:12 10° NNE
IRIDIUM 103 4.5 17:46:29 10° SSE 17:51:31 52° E 17:56:34 10° NNE
Meteor 2-21 4.4 17:45:35 10° S 17:51:33 69° E 17:57:33 10° NNE
Okean 2 4.5 17:47:46 10° NNW 17:51:48 49° W 17:55:46 10° SSW
MOS 1-B 4.4 17:46:14 10° SSE 17:51:55 62° ENE 17:57:40 10° N
Cosmos 1733 4.2 17:49:24 10° SSW 17:53:02 49° W 17:56:41 10° N
Cosmos 2360 Rocket 3.4 17:49:23 10° SE 17:53:12 19° E 17:57:01 10° ENE
SL-14 R/B 3.2 17:51:59 10° N 17:55:58 86° E 17:59:58 10° S
Cosmos 1809 Rocket 4.5 17:50:06 10° S 17:56:10 88° W 18:02:17 10° N
Cosmos 1766 3.1 17:55:27 10° S 17:59:20 74° E 18:03:16 10° NNE
Cosmos 1782 Rocket 4.5 17:55:51 10° SE 17:59:26 26° E 18:03:02 10° NNE
Meteor 2-10 4.5 17:55:09 10° SSW 18:00:47 74° W 18:06:18 10° N
YAOGAN 1 2.6 17:59:58 10° SSE 18:04:11 57° ENE 18:08:26 10° N
Cosmos 1674 Rocket 3.5 18:00:48 10° N 18:05:14 87° ENE 18:09:41 10° S
Cosmos 2026 Rocket 4.5 18:00:00 10° SSE 18:05:19 33° E 18:10:40 10° NNE
Cosmos 968 Rocket 3.5 18:00:48 10° S 18:05:57 62° ESE 18:11:08 10° NNE
Cosmos 1025 Rocket 4.4 18:04:42 10° NNE 18:07:48 19° ENE 18:07:57 19° ENE
Okean O Rocket 1.7 18:03:51 10° SSE 18:08:03 51° ENE 18:12:17 10° N
IRIDIUM 106 4.2 18:04:34 10° S 18:09:46 78° E 18:14:59 10° N
Lacrosse 4 Rocket 1.9 18:07:14 10° S 18:10:55 35° ESE 18:13:56 14° NE
Nadezhda 4 Rocket 4.0 18:06:43 10° S 18:13:02 83° E 18:19:23 10° N
Meteor 1-15 Rocket 4.1 18:09:20 10° S 18:14:52 69° E 18:20:24 10° NNE
Meteor 2-5 Rocket 3.9 18:12:24 10° N 18:17:41 45° ENE 18:22:58 10° SSE
USA 186 3.8 18:22:42 16° NE 18:22:42 16° NE 18:23:52 10° NNE
Cosmos 1726 3.6 18:18:10 10° SSW 18:21:35 38° WNW 18:25:01 10° N
Cosmos 2322 Rocket 2.3 18:16:18 10° S 18:21:49 53° ESE 18:27:21 10° NNE
Cosmos 2237 4.2 18:16:52 10° S 18:22:24 56° ESE 18:27:58 10° NNE
Cosmos 2285 Rocket 3.9 18:17:52 10° NNW 18:24:15 75° ENE 18:30:37 10° SSE
Cosmos 1470 2.6 18:22:23 10° S 18:26:10 58° E 18:29:56 10° NNE
CZ-4B R/B 3.3 18:21:06 10° S 18:26:27 77° WSW 18:31:57 10° NNW
BREEZE-M DEB (TANK) 4.4 18:18:03 10° SSW 18:27:47 27° SSE 18:29:16 24° SE
Cosmos 1980 Rocket 4.4 18:23:37 10° WSW 18:28:16 26° NW 18:32:56 10° N
NOSS 3-3 (A) 4.2 18:24:36 10° S 18:29:30 36° ESE 18:32:27 23° ENE
NOSS 3-3 (C) 4.2 18:24:43 10° S 18:29:37 36° ESE 18:32:21 24° ENE
Cosmos 1975 Rocket 3.5 18:28:55 10° N 18:33:00 37° ENE 18:33:09 37° E
Cosmos 2292 Rocket 3.8 18:30:46 10° S 18:36:20 83° W 18:40:31 10° N
SL-16 R/B 2.7 18:46:31 10° SW 18:52:07 62° WNW 18:57:45 10° NNE
Cosmos 1844 Rocket 3.0 18:46:57 10° NNW 18:52:24 45° ENE 18:52:59 43° ENE
Cosmos 1092 Rocket 4.0 18:48:14 10° S 18:54:33 84° W 19:00:52 10° N
Cosmos 1570 Rocket 4.2 18:52:25 10° NNW 18:57:39 70° WSW 19:00:57 23° S
Landsat 5 3.5 18:53:16 10° NNE 18:57:47 85° ESE 19:02:10 10° SSW
Resurs 01 Rocket 4.0 19:01:19 12° NNE 19:01:19 12° NNE 19:01:43 10° NNE
SJ-6B 3.8 19:02:07 34° N 19:02:07 34° N 19:04:24 10° N
Cosmos 2263 Rocket 4.3 19:06:38 10° NW 19:11:12 25° WSW 19:15:46 10° SSW
Meteor 1-24 Rocket 3.9 19:07:41 10° NNW 19:12:58 66° W 19:16:12 24° S
OAO 2 Rocket 4.1 19:12:58 10° W 19:17:05 39° SSW 19:17:05 39° SSW
USA 267 3.9 19:14:27 26° S 19:17:54 49° SW 19:24:14 10° NW
SL-4 R/B 2.7 19:13:34 10° WNW 19:17:51 58° SW 19:17:51 58° SW
Okean-O 3.2 19:20:29 51° NNW 19:20:29 51° NNW 19:23:51 10° NNW
CZ-4 R/B 3.5 19:17:22 10° SSW 19:20:52 26° W 19:24:24 10° NW
Cosmos 1486 Rocket 4.2 19:16:06 10° SSW 19:21:24 72° WNW 19:26:45 10° NNE
IGS 5A 4.5 19:24:37 41° NNW 19:24:37 41° NNW 19:27:27 10° NNW
ISS -0.8 19:23:15 10° W 19:24:26 13° WSW 19:24:26 13° WSW
Cosmos 1844 3.8 19:21:23 10° NNW 19:26:13 63° NNE 19:26:13 63° NNE
Cosmos 2333 Rocket 3.9 19:22:35 10° SSW 19:24:21 21° SSW 19:24:21 21° SSW
Cosmos 2360 Rocket 2.7 19:31:07 10° SW 19:36:39 57° WNW 19:42:14 10° NNE
Lacrosse 4 Rocket 3.8 19:46:29 10° WSW 19:49:36 21° NW 19:50:17 20° NW
Cosmos 2322 Rocket 4.3 20:01:40 10° WSW 20:06:10 24° NW 20:10:41 10° N
